Home   Weather   Perth   Past weeks

Flag for Australia Past Weather in Perth, Western Australia, Australia — Yesterday and Last 2 Weeks

Now
81 °F

Sunny.


Feels Like: 82 °F
Forecast: 64 / 84 °F
Wind: 13 mph from West

Location: Belmont Perth Airport

Current Time: Feb 26, 2017 at 3:46:06 pm

Latest Report: Feb 26, 2017 at 3:00 pm


Visibility: 10 mi

Pressure: 29.86 "Hg

Humidity: 54%

Dew Point: 63 °F

Location of PerthLocation

Past Weather in Perth — Graph

°F

Perth Temperature Yesterday

Maximum temperature yesterday: 102 °F (at 3:30 pm)
Minimum temperature yesterday: 72 °F (at 5:30 am)
Average temperature yesterday: 86 °F

High & Low Weather Summary for the Past Weeks

 TemperatureHumidityPressure
High102 °F (Feb 25, 3:30 pm)100% (Feb 15, 4:00 am)30.18 "Hg (Feb 15, 4:00 am)
Low46 °F (Feb 22, 5:30 am)12% (Feb 25, 3:00 pm)29.80 "Hg (Feb 13, 5:00 pm)
Average76 °F55%29.96 "Hg
* Reported Feb 11 2:00 pm — Feb 26 2:30 pm, Perth, Weather by CustomWeather, © 2017

Note: Actual official high and low records may vary slightly from our data, if they occured in-between our weather recording intervals... More about our weather records

Advertising

Perth Weather History for the Previous 24 Hours

Scroll right to see more
 ConditionsComfort  
Time TempWeatherWind HumidityBarometerVisibility
2:30 pm
Sun, Feb 26
82 °FSunny.13 mph45%29.86 "Hg10 mi
2:00 pm81 °FSunny.13 mph51%29.86 "Hg10 mi
1:30 pm81 °FSunny.13 mph54%29.86 "Hg10 mi
1:00 pm82 °FSunny.15 mph51%29.86 "Hg10 mi
12:30 pm84 °FSunny.13 mph51%29.86 "Hg10 mi
12:00 pm86 °FPassing clouds.8 mph43%29.86 "HgN/A
11:30 am84 °FPassing clouds.6 mph45%29.86 "HgN/A
11:00 am82 °FPassing clouds.6 mph45%29.89 "HgN/A
10:30 am81 °FPassing clouds.6 mph48%29.89 "HgN/A
10:00 am79 °FSunny.3 mph48%29.89 "Hg10 mi
9:30 am77 °FPassing clouds.6 mph54%29.89 "HgN/A
9:00 am75 °FSunny.7 mph61%29.86 "Hg10 mi
8:30 am73 °FPassing clouds.7 mph69%29.86 "HgN/A
8:00 am70 °FPassing clouds.5 mph78%29.86 "HgN/A
7:30 am68 °FSunny.7 mph78%29.86 "Hg10 mi
7:00 am66 °FSunny.7 mph73%29.86 "Hg10 mi
6:30 am63 °FSunny.No wind88%29.83 "Hg10 mi
6:00 am63 °FClear.7 mph88%29.83 "Hg10 mi
5:30 am63 °FClear.6 mph88%29.83 "Hg10 mi
5:00 am66 °FClear.8 mph88%29.83 "Hg10 mi
4:30 am68 °FClear.12 mph83%29.83 "Hg10 mi
4:00 am68 °FClear.12 mph83%29.83 "Hg10 mi
3:30 am68 °FClear.14 mph83%29.83 "Hg10 mi
3:00 am70 °FPassing clouds.10 mph83%29.83 "HgN/A
2:30 am70 °FClear.9 mph83%29.83 "Hg10 mi
2:00 am70 °FClear.7 mph83%29.86 "Hg10 mi
1:30 am72 °FClear.9 mph73%29.86 "Hg10 mi
1:00 am72 °FClear.10 mph69%29.86 "Hg10 mi
12:30 am73 °FClear.9 mph61%29.86 "Hg10 mi
11:30 pm
Sat, Feb 25
77 °FClear.12 mph51%29.86 "Hg10 mi
11:00 pm79 °FClear.12 mph42%29.86 "Hg10 mi
10:30 pm79 °FClear.8 mph42%29.86 "Hg10 mi
10:00 pm81 °FClear.12 mph39%29.86 "Hg10 mi
9:30 pm81 °FClear.10 mph39%29.86 "Hg10 mi
9:00 pm82 °FClear.9 mph40%29.86 "Hg10 mi
8:30 pm84 °FClear.9 mph35%29.86 "Hg10 mi
8:00 pm88 °FClear.9 mph29%29.83 "Hg10 mi
7:30 pm90 °FClear.13 mph24%29.83 "Hg10 mi
7:00 pm91 °FClear.12 mph23%29.83 "Hg10 mi
6:30 pm93 °FSunny.12 mph21%29.83 "Hg10 mi
6:00 pm95 °FSunny.13 mph19%29.83 "Hg10 mi
5:30 pm97 °FSunny.14 mph17%29.83 "Hg10 mi
5:00 pm97 °FSunny.12 mph19%29.83 "Hg10 mi
4:30 pm99 °FSunny.13 mph18%29.83 "Hg10 mi
4:00 pm102 °FSunny.8 mph12%29.83 "Hg10 mi
3:30 pm102 °FSunny.7 mph13%29.86 "Hg10 mi
3:00 pm100 °FSunny.5 mph12%29.86 "Hg10 mi
Weather by CustomWeather, © 2017

See weather overviewHow to use our weather pages